User: anonymous   Login
Location: Unspecified
(0.0000°N, 0.0000°E)
Time: 20:00:42
(UTC+00:00)
Language:

KAGAYAKI - Orbit

View from above orbital plane
View from above orbital plane
View from above satellite
View from above satellite

Ground track
Ground track

The orbit data is extracted from the following two-line orbital elements,

1 33495U 09002D   18016.92044489 +.00000001 +00000-0 +85940-5 0  9993
2 33495 098.3502 182.2462 0009340 073.0668 287.1562 14.72064483481850
Epoch (UTC): 16 January 2018 22:05:26
Eccentricity: 0.0009340
inclination: 98.3502°
perigee height: 648 km
apogee height: 661 km
right ascension of ascending node: 182.2462°
argument of perigee: 73.0668°
revolutions per day: 14.72064483
mean anomaly at epoch: 287.1562°
orbit number at epoch: 48185

The dashed part of the orbit path shows where the satellite is in the earth's shadow,  

DLR